Regional Weather Roundup
Issued by NWS

Home | Current Version | Previous Version | Graphics & Text | Print | Product List | Glossary On
Versions: 1 2 3 4 5 6 7 8 9 10 11 12 13 14 15 16 17 18 19 20 21 22 23 24 25 26 27 28 29 30 31 32 33 34 35 36 37 38 39 40 41 42 43 44 45 46 47 48 49 50
000
ASUS43 KFSD 230402
RWRSD

WEATHER ROUNDUP FOR SOUTH DAKOTA
NATIONAL WEATHER SERVICE SIOUX FALLS SD
1100 PM CDT WED OCT 22 2014

NOTE: "FAIR" INDICATES FEW OR NO CLOUDS BELOW 12,000 FEET WITH NO
SIGNIFICANT WEATHER AND/OR OBSTRUCTIONS TO VISIBILITY.


SDZ001>005-009-010-012>017-230500-
NORTHWEST AND NORTH CENTRAL SOUTH DAKOTA

CITY           SKY/WX    TMP DP  RH WIND       PRES   REMARKS
FAITH            N/A     51  29  42 SW6       29.99R
MOBRIDGE       CLEAR     48  37  65 NW7       29.94R
$$

SDZ012>016-024>037-041>051-057-063-072>074-230500-
SOUTHWEST AND SOUTH CENTRAL SOUTH DAKOTA

CITY           SKY/WX    TMP DP  RH WIND       PRES   REMARKS
RAPID CTY ARPT CLEAR     37  31  78 NW6       30.02S
PIERRE         CLEAR     48  38  68 SW6       29.98S
CUSTER         CLEAR     35  23  61 NW3       30.08S
ELLSWORTH AFB  CLEAR     44  35  70 W6        30.02R
PHILIP         CLEAR     39  32  76 W3        30.01S
PINE RIDGE     CLEAR     34  31  88 CALM      30.06R
SPEARFISH      FAIR      41  28  60 SW12      30.03S
WINNER         FAIR      54  39  57 SW7       30.02F
$$

SDZ004>011-016>023-039-040-230500-
NORTHEAST SOUTH DAKOTA

CITY           SKY/WX    TMP DP  RH WIND       PRES   REMARKS
ABERDEEN       CLEAR     47  45  93 SW7       29.96R
WATERTOWN      PTCLDY    49  49 100 SW9       29.96S
SISSETON         N/A     54  51  90 CALM      29.93R
$$

SDZ017-020-022-023-036>040-048>070-230500-
SOUTHEAST SOUTH DAKOTA

CITY           SKY/WX    TMP DP  RH WIND       PRES   REMARKS
SIOUX FALLS    CLOUDY    54  53  97 SW3       30.02S
HURON          CLEAR     50  47  89 SW7       29.98S
CHAMBERLAIN    CLEAR     45  42  91 SW5       30.01R
MITCHELL       CLEAR     50  49  96 S6        30.01S
YANKTON        PTCLDY    52  52 100 SW6       30.04S
$$

ABBREVIATIONS USED IN REMARKS
   TC - TEMPERATURE IN CELSIUS
  WCI - WIND CHILL INDEX
   HX - HEAT INDEX
  VSB - VISIBILITY




USA.gov is the U.S. government's official web portal to all federal, state and local government web resources and services.